[[{"header":{"parameterUnit":"m.s-1","parameterCategory":1,"la1":30.2991,"la2":30.254,"lo1":-89.0895,"lo2":-89.0444,"dy":0.0017,"dx":0.0017,"nx":28,"ny":28,"refTime":"2023-08-10T21:00:00:Z","depth":0,"parameterNumber":2,"parameterNumberName":"U-component_of_WINDS"},"data":[0,0,0,0,0,0,0,0,0,0,0,0,0,0,0,0,0,0,0,0,0,0,0,0,0,0,0,0,0,0,0,0,0,0,0,0,0,0,0,0,0,0,0,0,0,0,0,0,0,0,0,0,0,0,0,0,0,0,5.3855,5.3856,0,5.3918,5.3919,5.3919,5.3823,5.382,5.3816,5.3813,5.3876,5.3881,5.3885,0,0,0,0,0,0,0,0,0,0,0,0,0,5.3649,5.3654,5.3855,5.3856,5.3857,5.3918,5.3919,5.392,5.3824,5.382,5.3816,5.3812,5.3874,5.388,5.3886,0,0,0,0,0,0,0,0,0,0,0,0,0,5.3728,5.3655,5.3855,5.3816,5.3814,5.3918,5.3919,5.392,5.3825,5.382,5.3815,5.381,5.3872,5.3879,5.3887,5.4031,0,0,5.3908,5.3912,0,0,0,0,0,0,0,0,5.3724,5.3736,5.3821,5.3819,5.3816,5.3858,5.3869,5.3957,5.3826,5.382,5.3813,5.3807,5.3874,5.3881,5.3903,5.4034,5.4037,5.3909,5.3913,5.3917,5.3919,0,0,0,0,0,0,0,5.3718,5.3733,5.388,5.3823,5.382,5.3795,5.38,5.3885,5.3874,5.382,5.3814,5.3822,5.3871,5.3897,5.3904,5.4038,5.3909,5.3915,5.392,5.3922,5.4286,5.4291,0,0,0,0,0,0,5.3718,5.3729,5.3878,5.3882,5.3757,5.3803,5.3809,5.3849,5.3873,5.3872,5.3827,5.3818,5.3887,5.3896,5.3906,5.4073,5.3916,5.3923,5.3927,5.428,5.4287,5.4293,0,0,0,0,0,0,5.3714,5.3732,5.3876,5.3803,5.382,5.3812,5.3858,5.3853,5.3878,5.3878,5.3875,5.3854,5.3883,5.3896,5.4,5.4074,5.3926,5.3933,5.4274,5.4282,5.429,5.441,0,0,0,0,0,0,5.3709,5.3731,5.3787,5.3806,5.3824,5.397,5.3862,5.3858,5.3891,5.388,5.3903,5.3902,5.388,5.399,5.4007,5.4081,5.3939,5.4267,5.4278,5.4287,5.44,5.4422,5.444,0,0,0,0,0,5.3702,5.3819,5.379,5.3809,5.3894,5.3974,5.3985,5.3957,5.3898,5.3952,5.3952,5.3902,5.4064,5.4001,5.402,5.4097,5.4262,5.4275,5.4286,5.4391,5.4417,5.444,0,0,0,0,0,0,5.381,5.3821,5.3789,5.3917,5.3945,5.3958,5.4026,5.3987,5.4033,5.402,5.3984,5.399,5.4101,5.411,5.404,5.4236,5.4153,5.4169,5.4226,5.4251,5.4271,5.4265,5.3944,0,0,0,0,0,5.3848,5.3914,5.392,5.4032,5.4048,5.4035,5.4069,5.4046,5.4073,5.4085,5.4092,5.412,5.4177,5.4215,5.4268,5.4402,5.4403,5.4464,5.4484,5.4501,5.4514,5.4582,5.4607,5.4332,5.4332,5.4332,0,0,5.3929,5.3943,5.3987,5.4054,5.4073,5.4139,5.4046,5.4121,5.4169,5.4096,5.4193,5.42,5.4229,5.4348,5.44,5.4358,5.4591,5.4516,5.453,5.4534,5.4597,5.4623,5.4646,5.434,5.4339,5.4337,0,0,5.4108,5.4128,5.4221,5.4242,5.4272,5.4263,5.4285,5.4304,5.4305,5.4403,5.4348,5.4405,5.4505,5.4526,5.4551,5.4738,5.4691,5.4756,5.486,5.4927,5.4948,5.4967,5.503,5.5053,5.477,5.4771,5.4771,0,5.4204,5.4303,5.4273,5.4352,5.4381,5.4319,5.4411,5.4433,5.4479,5.45,5.4454,5.4575,5.4591,5.4711,5.4757,5.478,5.4802,5.4751,5.4948,5.4966,5.4984,5.5043,5.5067,5.4778,5.4777,5.4776,5.4775,0,5.4417,5.4487,5.4558,5.4603,5.4642,5.4727,5.4709,5.4751,5.4724,5.4719,5.4818,5.4834,5.4887,5.4915,5.489,5.5032,5.5004,5.4954,5.4868,5.5018,5.5072,5.5095,5.4788,5.4786,5.4783,5.4782,0,0,5.4664,5.4692,5.4718,5.4736,5.4765,5.4817,5.4899,5.4951,5.4986,5.5021,5.5086,5.5171,5.5124,5.5151,5.5128,5.5187,5.5329,5.5128,5.5128,5.5161,5.5481,5.5516,5.5543,5.53,5.5304,5.5308,5.5477,0,5.4839,5.498,5.4956,5.5092,5.5153,5.5095,5.5165,5.519,5.5187,5.5238,5.5236,5.5295,5.523,5.5245,5.5301,5.53,5.5392,5.5288,5.5357,5.536,5.5347,5.5572,5.5609,5.5768,5.5498,5.5502,5.5505,0,5.5062,5.5104,5.5246,5.5262,5.5287,5.5351,5.5395,5.5446,5.5472,5.5466,5.5496,5.5462,5.5541,5.5458,5.5564,5.5494,5.5521,5.5525,5.553,5.5532,5.5439,5.5576,5.5819,5.5841,5.5539,5.5536,5.5534,0,5.5223,5.5315,5.541,5.5429,5.5452,5.5497,5.5509,5.5529,5.5561,5.56,5.562,5.5668,5.5693,5.5731,5.5709,5.5651,5.5818,5.5734,5.5812,5.5813,5.5847,5.5844,5.6093,5.5873,5.5872,5.5872,5.5871,0,5.5419,5.5507,5.5482,5.5541,5.5637,5.5608,5.5704,5.5708,5.5727,5.5784,5.5738,5.5792,5.5762,5.5814,5.5798,5.5886,5.5899,5.5894,5.5888,5.5896,5.5896,5.5911,5.5897,5.5878,5.5877,5.5875,5.5874,0,5.5612,5.56,5.57,5.5713,5.5719,5.5789,5.5799,5.5852,5.5847,5.5919,5.5935,5.5926,5.5983,5.5967,5.603,5.6019,5.613,5.6112,5.6121,5.6115,5.6193,5.6184,5.6456,5.6488,5.6251,5.6253,5.6255,0,5.5736,5.5802,5.5822,5.5857,5.5872,5.5929,5.5961,5.5935,5.597,5.6003,5.6052,5.6107,5.6148,5.6243,5.6241,5.6289,5.6269,5.6361,5.6275,5.628,5.6265,5.6259,5.6264,5.6376,5.6379,5.6382,5.6383,0,5.5955,5.5945,5.5993,5.604,5.6079,5.6114,5.6145,5.6176,5.6152,5.6193,5.6252,5.6284,5.6348,5.6401,5.6444,5.6454,5.6414,5.6411,5.6431,5.6437,5.6438,5.6434,5.6163,5.6404,5.6402,5.64,5.6399,5.6398,5.6114,5.6168,5.619,5.6245,5.6266,5.6295,5.6345,5.6345,5.6394,5.6444,5.6426,5.6492,5.6514,5.6567,5.6583,5.6634,5.6598,5.6628,5.6635,5.6642,5.6649,5.6433,5.6642,5.6642,5.6641,5.6641,5.664,0,5.6326,5.6337,5.6388,5.6432,5.6475,5.6435,5.6467,5.6504,5.6563,5.6588,5.6629,5.6695,5.6746,5.6748,5.6795,5.6835,5.6818,5.6848,5.6842,5.6845,5.6681,5.6657,5.6861,5.6861,5.6861,5.6861,5.6861,5.6861,5.6441,5.653,5.6524,5.6622,5.6632,5.6697,5.6717,5.6743,5.6762,5.6838,5.688,5.6881,5.6896,5.6944,5.6988,5.6987,5.7004,5.7041,5.7033,5.6879,5.6857,5.6836,5.6812,5.7046,5.7047,5.7192,5.7193,5.7194]},{"header":{"parameterUnit":"m.s-1","parameterCategory":1,"la1":30.2991,"la2":30.254,"lo1":-89.0895,"lo2":-89.0444,"dy":0.0017,"dx":0.0017,"nx":28,"ny":28,"refTime":"2023-08-10T21:00:00:Z","depth":0,"parameterNumber":3,"parameterNumberName":"V-component_of_WINDS"},"data":[0,0,0,0,0,0,0,0,0,0,0,0,0,0,0,0,0,0,0,0,0,0,0,0,0,0,0,0,0,0,0,0,0,0,0,0,0,0,0,0,0,0,0,0,0,0,0,0,0,0,0,0,0,0,0,0,0,0,5.9637,5.9639,0,5.9776,5.9778,5.9779,5.9773,5.9771,5.9769,5.9767,5.9903,5.9909,5.9914,0,0,0,0,0,0,0,0,0,0,0,0,0,5.9358,5.9363,5.9637,5.9639,5.964,5.9776,5.9778,5.978,5.9774,5.9771,5.9769,5.9767,5.9901,5.9908,5.9914,0,0,0,0,0,0,0,0,0,0,0,0,0,5.9486,5.9365,5.9637,5.9654,5.9657,5.9776,5.9778,5.978,5.9774,5.9771,5.9768,5.9765,5.9899,5.9907,5.9915,6.0024,0,0,5.994,5.9944,0,0,0,0,0,0,0,0,5.9479,5.9496,5.965,5.9653,5.9656,5.9755,5.9729,5.9862,5.9775,5.9729,5.9767,5.9764,5.9856,5.9867,5.99,6.0031,6.0036,5.9941,5.9946,5.9949,5.9952,0,0,0,0,0,0,0,5.947,5.949,5.9692,5.9652,5.9656,5.9652,5.9667,5.9754,5.9807,5.9733,5.9733,5.975,5.9857,5.9892,5.9903,6.0038,5.9941,5.9948,5.9953,5.9956,6.0262,6.0265,0,0,0,0,0,0,5.9458,5.9483,5.9687,5.9696,5.9559,5.9659,5.9676,5.9726,5.9806,5.9816,5.9752,5.9749,5.9879,5.9893,5.9907,6.0038,5.9949,5.9957,5.9962,6.0259,6.0263,6.0266,0,0,0,0,0,0,5.9452,5.9477,5.9682,5.959,5.9615,5.9667,5.9723,5.973,5.9765,5.9821,5.9829,5.9779,5.9877,5.9896,5.9995,6.0043,5.9961,5.9968,6.0255,6.026,6.0264,6.0301,0,0,0,0,0,0,5.9444,5.9475,5.9519,5.9591,5.962,5.977,5.9726,5.9735,5.978,5.9777,5.9848,5.9857,5.9877,5.9983,6.0003,6.0052,5.9974,6.0251,6.0257,6.0263,6.0296,6.0307,6.0316,0,0,0,0,0,5.9434,5.9523,5.9521,5.9546,5.9677,5.9772,5.9789,5.9812,5.9784,5.9827,5.9862,5.9854,6.0034,5.9993,6.0016,6.0068,6.0248,6.0255,6.0262,6.0291,6.0304,6.0316,0,0,0,0,0,0,5.9453,5.9532,5.9531,5.9646,5.9703,5.9771,5.9827,5.9826,5.989,5.9885,5.9909,5.9925,6.0023,6.0056,6.0008,6.0176,6.0137,6.0149,6.0151,6.0164,6.0174,6.0163,5.9981,0,0,0,0,0,5.9471,5.9544,5.9609,5.9703,5.9732,5.9774,5.9817,5.983,5.9889,5.9912,5.9955,6.001,6.0079,6.0123,6.019,6.0301,6.0314,6.0348,6.0357,6.0365,6.0375,6.0433,6.0448,6.029,6.029,6.029,0,0,5.9508,5.956,5.9605,5.9708,5.9754,5.9826,5.9795,5.9873,5.9927,5.9923,6.0019,6.0052,6.0115,6.022,6.0268,6.025,6.0422,6.0375,6.0381,6.0386,6.0442,6.0457,6.047,6.0295,6.0294,6.0293,0,0,5.9611,5.966,5.9743,5.9789,5.9859,5.9886,5.9906,5.9975,5.9997,6.0094,6.0092,6.0154,6.0273,6.0317,6.0355,6.0474,6.0468,6.0495,6.0546,6.0602,6.0614,6.0626,6.0665,6.0679,6.0504,6.0504,6.0504,0,5.9648,5.976,5.9785,5.9864,5.9908,5.9911,5.9993,6.0036,6.0123,6.0152,6.0131,6.0278,6.0321,6.0435,6.0463,6.0495,6.0516,6.0486,6.0611,6.0623,6.0633,6.0671,6.0686,6.0507,6.0507,6.0506,6.0506,0,5.9799,5.9877,5.9935,6.002,6.0071,6.0151,6.0186,6.0234,6.0242,6.027,6.0367,6.0419,6.0494,6.0522,6.0531,6.0636,6.0623,6.0606,6.0567,6.065,6.0686,6.0701,6.0511,6.051,6.0509,6.0508,0,0,5.9919,6.0017,6.0038,6.0075,6.0151,6.021,6.0289,6.0365,6.0404,6.0463,6.0528,6.0628,6.0612,6.0655,6.0668,6.0718,6.0805,6.0695,6.0697,6.0711,6.0921,6.0931,6.0948,6.0802,6.0805,6.0807,6.0915,0,6.0029,6.0172,6.0196,6.0319,6.0389,6.0391,6.0459,6.0511,6.0539,6.06,6.063,6.07,6.0676,6.0702,6.0751,6.0784,6.0847,6.0777,6.0859,6.0861,6.0841,6.0967,6.0979,6.1078,6.0929,6.0931,6.0933,0,6.0177,6.0241,6.0372,6.0436,6.0466,6.0528,6.0597,6.0657,6.0715,6.0732,6.0779,6.0786,6.0864,6.0823,6.093,6.0881,6.0916,6.0937,6.0941,6.0948,6.0901,6.0975,6.1111,6.1125,6.0956,6.0954,6.0953,0,6.0247,6.0367,6.046,6.0492,6.0571,6.0613,6.0647,6.0703,6.0746,6.0806,6.0834,6.0902,6.0938,6.099,6.1013,6.0981,6.1117,6.1078,6.113,6.113,6.1158,6.1155,6.1298,6.1184,6.1183,6.1183,6.1183,0,6.0367,6.0446,6.0492,6.0549,6.0637,6.0663,6.0748,6.0781,6.083,6.0891,6.0896,6.0953,6.0982,6.1041,6.106,6.1144,6.1161,6.1174,6.1178,6.1173,6.1171,6.1195,6.1188,6.1187,6.1186,6.1185,6.1185,0,6.046,6.0495,6.0596,6.0662,6.068,6.0742,6.0797,6.085,6.0878,6.0955,6.0974,6.1017,6.1088,6.1117,6.1203,6.1215,6.1311,6.131,6.1292,6.1292,6.1342,6.1336,6.1504,6.1526,6.1399,6.14,6.1401,0,6.0533,6.0594,6.0667,6.0709,6.0745,6.0813,6.0857,6.0884,6.0929,6.0998,6.1043,6.1114,6.1172,6.1285,6.1322,6.1387,6.1386,6.1441,6.1396,6.1388,6.1384,6.138,6.1384,6.1448,6.1449,6.1451,6.1451,0,6.0658,6.0672,6.0736,6.0807,6.086,6.0916,6.097,6.1004,6.1038,6.1088,6.1162,6.1207,6.1296,6.1365,6.1432,6.1464,6.1462,6.1465,6.148,6.1475,6.1461,6.1467,6.1312,6.1461,6.146,6.1459,6.1459,6.1458,6.0742,6.0795,6.0854,6.0925,6.0969,6.102,6.1073,6.1107,6.117,6.1245,6.1256,6.1334,6.1387,6.1478,6.1512,6.1571,6.1557,6.158,6.1585,6.1589,6.1592,6.1453,6.1584,6.1584,6.1583,6.1583,6.1583,0,6.0864,6.0902,6.0968,6.1044,6.1099,6.1096,6.1155,6.1201,6.127,6.1321,6.1378,6.1461,6.1528,6.157,6.1636,6.1675,6.1676,6.1692,6.1688,6.1695,6.1602,6.1581,6.169,6.169,6.169,6.169,6.169,6.169,6.0935,6.1024,6.1044,6.1154,6.1191,6.1269,6.1303,6.1348,6.1389,6.1482,6.1538,6.1566,6.1612,6.1682,6.1742,6.1753,6.1776,6.1792,6.1801,6.1713,6.1702,6.1691,6.1672,6.1797,6.1798,6.1889,6.1889,6.189]}]]